CST,Max TemperatureF,Mean TemperatureF,Min TemperatureF,Max Dew PointF,MeanDew PointF,Min DewpointF,Max Humidity, Mean Humidity, Min Humidity, Max Sea Level PressureIn, Mean Sea Level PressureIn, Min Sea Level PressureIn, Max VisibilityMiles, Mean VisibilityMiles, Min VisibilityMiles, Max Wind SpeedMPH, Mean Wind SpeedMPH, Max Gust SpeedMPH,PrecipitationIn, CloudCover, Events, WindDirDegrees
2013-1-1,16,3,-10,11,-3,-13,87,75,63,30.32,30.22,30.11,10,9,4,14,5,17,T,4,Snow,228
2013-1-2,18,14,10,13,9,5,84,76,67,30.09,30.03,29.95,10,9,5,13,5,15,T,7,Snow,205
2013-1-3,20,14,7,17,10,2,88,79,70,30.23,30.17,30.03,10,7,3,14,8,18,T,5,Snow,257
2013-1-4,28,20,12,15,12,9,88,74,58,30.18,30.10,30.04,10,10,8,13,8,,0.00,0,,238
2013-1-5,24,14,3,17,10,1,92,80,68,30.16,30.00,29.89,9,7,6,10,2,13,0.00,0,,223
2013-1-6,22,16,10,17,12,6,84,73,62,30.24,30.14,29.92,10,9,6,14,5,18,0.00,4,,253
2013-1-7,35,24,12,23,18,8,100,80,59,30.13,29.99,29.92,10,10,7,21,9,25,0.00,0,,210
2013-1-8,37,22,7,29,16,5,92,78,64,30.04,29.95,29.78,10,4,0,24,7,31,0.00,3,Fog,171
2013-1-9,35,26,16,26,21,15,91,74,56,30.39,30.16,29.88,10,10,8,24,10,32,0.00,1,,250
2013-1-10,39,28,16,33,22,14,96,73,45,30.42,30.18,29.82,10,9,4,10,4,,0.23,3,Rain,126
2013-1-11,42,38,34,40,36,33,100,96,92,29.77,29.57,29.41,6,2,0,14,8,18,0.00,8,Fog,158
2013-1-12,44,27,10,40,19,2,89,75,61,30.08,29.74,29.39,10,10,8,28,15,38,T,7,Snow,246
2013-1-13,12,10,7,4,1,-2,80,71,61,30.27,30.11,29.99,10,9,5,16,8,22,T,5,Snow,278
2013-1-14,14,7,0,6,2,-3,87,76,64,30.43,30.39,30.29,10,9,6,15,6,18,0.00,3,Snow,238
2013-1-15,30,15,0,16,10,-4,88,68,47,30.37,30.18,29.91,10,10,7,18,7,23,0.00,2,,204
2013-1-16,35,25,14,28,18,0,88,67,45,30.20,29.80,29.64,10,8,2,21,11,28,0.01,6,Snow,259
2013-1-17,18,12,5,7,2,-6,88,69,49,30.43,30.36,30.24,10,10,10,15,6,20,T,6,,283
2013-1-18,42,27,11,29,18,6,85,72,59,30.34,29.98,29.74,10,8,1,20,8,23,0.04,4,Snow,180
2013-1-19,41,23,5,30,17,-6,92,74,56,30.14,29.81,29.64,10,10,9,38,12,51,T,6,,271
2013-1-20,8,4,-1,-3,-6,-8,79,67,55,30.40,30.30,30.11,10,10,5,17,10,22,T,4,,284
2013-1-21,3,-2,-8,-8,-15,-20,72,54,36,30.34,30.24,30.18,10,10,4,17,12,25,T,4,Snow,293
2013-1-22,0,-4,-7,-8,-12,-17,71,61,51,30.35,30.30,30.25,10,10,10,10,5,,0.00,1,,280
2013-1-23,16,5,-6,5,-2,-17,80,64,47,30.62,30.24,30.08,10,6,2,23,7,31,T,6,Snow,310
2013-1-24,11,1,-9,1,-9,-17,71,64,57,30.74,30.57,30.29,10,10,7,13,5,18,T,4,Snow,118
2013-1-25,20,13,5,13,8,-1,84,70,56,30.30,30.05,29.90,10,5,1,20,9,24,0.04,7,Snow,248
2013-1-26,23,9,-6,11,2,-9,91,71,51,30.43,30.33,30.24,10,10,9,16,4,21,T,4,,140
2013-1-27,31,26,20,29,23,10,92,75,58,30.22,29.97,29.80,10,4,0,15,7,22,0.24,8,Fog-Rain-Snow,119
2013-1-28,33,32,30,31,29,28,92,89,85,29.94,29.85,29.69,10,4,0,14,4,18,0.06,8,Fog-Rain,135
2013-1-29,35,33,30,34,30,23,100,88,75,29.68,29.58,29.48,10,6,0,16,7,24,0.33,8,Fog-Rain-Thunderstorm,352
2013-1-30,30,21,11,22,12,1,81,71,61,29.70,29.58,29.52,10,6,1,20,13,28,0.05,8,Snow,332
2013-1-31,11,3,-5,5,-2,-14,80,70,59,30.25,29.88,29.66,10,6,1,20,12,25,T,7,Snow,290